Погода в Абрау-Дюрсо

Россия / Краснодарский край     44°42′05″N   37°36′01″E
темп.,
°C
ветер,
м/с
пор.,
м/с
влажн.,
%
обл.,
%
осадки,
мм/ч
давл.,
гПа
погр.,
м
9 декабря, чт
чт900:00+10ююз359263 0.0 1011131
03:00+10юз4590100 0.0 1012161
06:00+10зюз5686100 0.0 1013529
09:00+9зюз4581100 0.1 1016679
12:00+9зюз5679100 0.1 1017759
15:00+10зюз5677100 0.1 1018915
18:00+10юз5778100 0.1 1020560
21:00+9юз4687100 0.8 1021471
10 декабря, пт
пт1000:00+9ююз568398 0.3 1022420
03:00+9ююз348488 0.4 1023234
06:00+8ююв238726 0.1 102398
09:00+9вюв348639 0.1 1023159
12:00+11юв45714 0.0 1023494
15:00+12вюв477720 0.0 1022549
18:00+10в458916 0.0 1022143
21:00+9в45855 0.0 1021113
11 декабря, сб
сб1100:00+9в34805 0.0 102063
03:00+9в4473100 0.0 101960
06:00+9в4568100 0.0 101883
09:00+10в446398 0.0 102055
12:00+14юв585188 0.0 1019568
15:00+13юв467325 0.0 1020404
18:00+11вюв348391 0.0 102164
21:00+10вюв337683 0.0 102147
12 декабря, вс
вс1200:00+10в33655 0.0 102133
03:00+10в3254100 0.0 102120
06:00+10всв3351100 0.0 102037
09:00+10всв3350100 0.0 102041
12:00+13в3544100 0.0 1019174
15:00+14в3444100 0.0 101884
18:00+11всв4455100 0.0 101852
21:00+10всв445698 0.0 101745
13 декабря, пн
пн1300:00+10всв335322 0.0 101634
03:00+10в434915 0.0 101635
06:00+11вюв44475 0.0 101548
09:00+11вюв5761100 0.0 101699
12:00+13юв5866100 0.0 1016385
15:00+13юв5768100 0.0 1015341
18:00+10в2279100 0.0 101621
21:00+9св3274100 0.0 101538